Date String (YYYY-MM-DD hh:mm:ss) UTC,Instrument flags,Ambient pressure (hPa),Sample flow (lpm),Bypass flow (lpm),Sample temperature (°C),Ambient temperature (°C),ASC tube jacket temperature (°C),LED temperature (°C),Box temperature (°C),Sample RH (%),Span deviation,Mass concentration (μg/m³),Mass concentration (μg/m³),Mass concentration (μg/m³)
DateTimeUTC,F1_M11,P_M11,Q1_M11,Q2_M11,T1_M11,T2_M11,T3_M11,T4_M11,T5_M11,U1_M11,ZSPAN_M11,X0_M11,X2_M11,X1_M11
2021-10-25 09:00:00,,0822.6,4.98,0.00,28.8,27.8,00.0,37.9,30.5,11.8,0000.0,0010.48,0003.21,0001.59
2021-10-25 09:01:00,,0822.6,5.02,0.00,28.8,27.8,00.0,37.9,30.5,11.7,0000.0,0010.92,0003.18,0001.58
2021-10-25 09:02:00,,0822.5,5.00,0.00,28.8,27.8,00.0,37.9,30.5,11.8,0000.0,0011.09,0003.16,0001.58
2021-10-25 09:03:00,,0822.6,5.00,0.00,28.7,27.8,00.0,37.9,30.5,11.8,0000.0,0011.43,0003.16,0001.58
2021-10-25 09:04:00,,0822.6,5.00,0.00,28.7,27.8,00.0,37.9,30.5,11.7,0000.0,0011.37,0003.15,0001.58
2021-10-25 09:05:00,,0822.5,5.01,0.00,28.7,27.8,00.0,37.9,30.5,11.7,0000.0,0011.90,0003.13,0001.55
2021-10-25 09:06:00,,0822.4,5.00,0.00,28.7,27.8,00.0,37.9,30.5,11.7,0000.0,0012.27,0003.10,0001.55
2021-10-25 09:07:00,,0822.4,4.99,0.00,28.7,27.8,00.0,37.9,30.5,11.7,0000.0,0012.22,0003.04,0001.55
2021-10-25 09:08:00,,0822.4,5.00,0.00,28.7,27.8,00.0,37.8,30.5,11.7,0000.0,0012.56,0003.07,0001.54
2021-10-25 09:09:00,,0822.5,5.01,0.00,28.7,27.8,00.0,37.8,30.5,11.7,0000.0,0012.03,0003.09,0001.54
2021-10-25 09:10:00,,0822.6,5.00,0.00,28.7,27.8,00.0,37.8,30.4,11.7,0000.0,0011.67,0003.15,0001.54
2021-10-25 09:11:00,,0822.6,4.99,0.00,28.7,27.8,00.0,37.8,30.5,11.7,0000.0,0012.33,0003.22,0001.54
2021-10-25 09:12:00,,0822.6,5.00,0.00,28.7,27.8,00.0,37.8,30.5,11.7,0000.0,0011.89,0003.27,0001.54
2021-10-25 09:13:00,,0822.5,5.00,0.00,28.7,27.8,00.0,37.8,30.4,11.7,0000.0,0011.01,0003.25,0001.53
2021-10-25 09:14:00,,0822.4,5.00,0.00,28.7,27.7,00.0,37.8,30.4,11.7,0000.0,0010.09,0003.22,0001.52
2021-10-25 09:15:00,,0822.4,5.01,0.00,28.7,27.7,00.0,37.8,30.4,11.7,0000.0,0009.48,0003.18,0001.52
2021-10-25 09:16:00,,0822.4,4.98,0.00,28.7,27.7,00.0,37.8,30.4,11.7,0000.0,0008.92,0003.16,0001.53
2021-10-25 09:17:00,,0822.4,5.00,0.00,28.7,27.7,00.0,37.8,30.4,11.7,0000.0,0008.92,0003.21,0001.54
2021-10-25 09:18:00,,0822.4,5.01,0.00,28.7,27.7,00.0,37.8,30.4,11.7,0000.0,0008.92,0003.21,0001.54
2021-10-25 09:19:00,,0822.4,5.00,0.00,28.7,27.7,00.0,37.8,30.4,11.7,0000.0,0009.82,0003.18,0001.55
2021-10-25 09:20:00,,0822.5,5.01,0.00,28.7,27.7,00.0,37.8,30.4,11.8,0000.0,0009.96,0003.15,0001.55
2021-10-25 09:21:00,,0822.4,5.00,0.00,28.7,27.7,00.0,37.8,30.4,11.8,0000.0,0009.92,0003.14,0001.55
2021-10-25 09:22:00,,0822.5,5.00,0.00,28.7,27.7,00.0,37.8,30.4,11.8,0000.0,0009.59,0003.05,0001.55
2021-10-25 09:23:00,,0822.4,5.01,0.00,28.6,27.7,00.0,37.8,30.4,11.8,0000.0,0010.24,0002.98,0001.55
2021-10-25 09:24:00,,0822.4,5.01,0.00,28.6,27.7,00.0,37.8,30.3,11.8,0000.0,0010.54,0003.02,0001.57
2021-10-25 09:25:00,,0822.4,4.99,0.00,28.6,27.7,00.0,37.8,30.3,11.8,0000.0,0010.85,0003.06,0001.57
2021-10-25 09:26:00,,0822.4,5.02,0.00,28.6,27.6,00.0,37.8,30.3,11.8,0000.0,0011.78,0003.13,0001.58
2021-10-25 09:27:00,,0822.5,4.99,0.00,28.6,27.6,00.0,37.8,30.3,11.8,0000.0,0013.34,0003.17,0001.58
2021-10-25 09:28:00,,0822.6,4.98,0.00,28.6,27.7,00.0,37.7,30.3,11.8,0000.0,0015.16,0003.15,0001.57
2021-10-25 09:29:00,,0822.6,4.99,0.00,28.6,27.6,00.0,37.7,30.3,11.8,0000.0,0015.43,0003.18,0001.57
2021-10-25 09:30:00,,0822.5,5.00,0.00,28.6,27.6,00.0,37.7,30.3,11.9,0000.0,0014.69,0003.19,0001.57
2021-10-25 09:31:00,,0822.4,5.01,0.00,28.5,27.6,00.0,37.7,30.3,11.9,0000.0,0014.73,0003.19,0001.57
2021-10-25 09:32:00,,0822.4,5.00,0.00,28.5,27.6,00.0,37.7,30.2,11.9,0000.0,0014.81,0003.17,0001.57
2021-10-25 09:33:00,,0822.5,5.02,0.00,28.5,27.6,00.0,37.7,30.2,11.9,0000.0,0015.05,0003.22,0001.57
2021-10-25 09:34:00,,0822.6,5.00,0.00,28.5,27.6,00.0,37.7,30.3,11.9,0000.0,0015.23,0003.28,0001.57
2021-10-25 09:35:00,,0822.6,5.00,0.00,28.5,27.6,00.0,37.7,30.3,11.9,0000.0,0014.92,0003.28,0001.54
2021-10-25 09:36:00,,0822.5,5.00,0.00,28.5,27.6,00.0,37.7,30.3,11.9,0000.0,0014.73,0003.27,0001.53
2021-10-25 09:37:00,,0822.4,5.00,0.00,28.5,27.6,00.0,37.7,30.3,11.9,0000.0,0013.78,0003.22,0001.52
2021-10-25 09:38:00,,0822.4,5.01,0.00,28.5,27.6,00.0,37.6,30.3,11.9,0000.0,0012.96,0003.21,0001.52
2021-10-25 09:39:00,,0822.5,4.99,0.00,28.5,27.6,00.0,37.6,30.3,11.9,0000.0,0010.18,0003.22,0001.53
2021-10-25 09:40:00,,0822.5,5.01,0.00,28.5,27.6,00.0,37.6,30.3,11.9,0000.0,0010.03,0003.18,0001.53
2021-10-25 09:41:00,,0822.5,5.00,0.00,28.5,27.6,00.0,37.6,30.3,11.9,0000.0,0009.55,0003.16,0001.51
2021-10-25 09:42:00,,0822.4,5.00,0.00,28.6,27.6,00.0,37.7,30.3,11.9,0000.0,0009.40,0003.21,0001.51
2021-10-25 09:43:00,,0822.4,5.00,0.00,28.6,27.6,00.0,37.7,30.3,11.8,0000.0,0009.35,0003.21,0001.52
2021-10-25 09:44:00,,0822.4,5.01,0.00,28.6,27.6,00.0,37.7,30.3,11.8,0000.0,0008.99,0003.18,0001.51
2021-10-25 09:45:00,,0822.4,4.99,0.00,28.6,27.6,00.0,37.6,30.3,11.8,0000.0,0008.10,0003.10,0001.51
2021-10-25 09:46:00,,0822.4,5.00,0.00,28.6,27.6,00.0,37.6,30.3,11.8,0000.0,0008.43,0003.08,0001.53
2021-10-25 09:47:00,,0822.4,5.00,0.00,28.6,27.6,00.0,37.7,30.3,11.9,0000.0,0008.68,0003.05,0001.54
2021-10-25 09:48:00,,0822.3,5.01,0.00,28.5,27.6,00.0,37.6,30.3,11.9,0000.0,0009.06,0003.05,0001.55
2021-10-25 09:49:00,,0822.2,4.98,0.00,28.5,27.6,00.0,37.6,30.3,11.9,0000.0,0009.31,0003.03,0001.54
2021-10-25 09:50:00,,0822.2,5.01,0.00,28.5,27.6,00.0,37.6,30.3,12.0,0000.0,0009.19,0002.97,0001.54
2021-10-25 09:51:00,,0822.2,4.99,0.00,28.5,27.6,00.0,37.6,30.3,12.0,0000.0,0009.23,0002.95,0001.55
2021-10-25 09:52:00,,0822.0,4.99,0.00,28.5,27.6,00.0,37.6,30.3,12.0,0000.0,0008.95,0002.87,0001.54
2021-10-25 09:53:00,,0822.1,5.00,0.00,28.5,27.6,00.0,37.6,30.3,12.0,0000.0,0008.67,0002.74,0001.54
2021-10-25 09:54:00,,0822.1,5.01,0.00,28.5,27.6,00.0,37.6,30.2,12.0,0000.0,0008.62,0002.70,0001.53
2021-10-25 09:55:00,,0822.1,5.00,0.00,28.5,27.6,00.0,37.6,30.3,12.0,0000.0,0008.72,0002.72,0001.52
2021-10-25 09:56:00,,0822.1,4.99,0.00,28.5,27.6,00.0,37.6,30.2,12.0,0000.0,0008.88,0002.75,0001.53
2021-10-25 09:57:00,,0822.2,5.00,0.00,28.5,27.6,00.0,37.6,30.2,12.1,0000.0,0008.60,0002.77,0001.52
2021-10-25 09:58:00,,0822.1,5.00,0.00,28.5,27.6,00.0,37.6,30.2,12.1,0000.0,0008.39,0002.77,0001.52
2021-10-25 09:59:00,,0822.1,4.99,0.00,28.5,27.5,00.0,37.6,30.2,12.1,0000.0,0008.62,0002.86,0001.53
